Time,TemperatureF,DewpointF,PressureIn,WindDirection,WindDirectionDegrees,WindSpeedMPH,WindSpeedGustMPH,Humidity,HourlyPrecipIn,Conditions,Clouds,dailyrainin,SoftwareType,DateUTC
2013-11-30 00:01:00,35.0,26.2,30.59,ESE,119,0.0,7.0,70,0.00,,CLR,0.00,VWS V14.01,2013-11-30 05:01:00,
2013-11-30 00:02:00,35.0,26.2,30.59,ESE,119,0.0,7.0,70,0.00,,CLR,0.00,VWS V14.01,2013-11-30 05:02:00,
2013-11-30 00:03:00,35.0,26.2,30.59,ESE,119,0.0,7.0,70,0.00,,CLR,0.00,VWS V14.01,2013-11-30 05:03:00,
2013-11-30 00:05:00,35.0,25.9,30.59,ESE,119,0.0,7.0,69,0.00,,CLR,0.00,VWS V14.01,2013-11-30 05:05:00,
2013-11-30 00:06:00,35.0,25.9,30.59,ESE,119,0.0,7.0,69,0.00,,CLR,0.00,VWS V14.01,2013-11-30 05:06:00,
2013-11-30 00:11:00,34.9,25.8,30.59,ESE,119,0.0,7.0,69,0.00,,CLR,0.00,VWS V14.01,2013-11-30 05:11:00,
2013-11-30 00:16:00,34.9,26.1,30.59,ESE,119,0.0,7.0,70,0.00,,CLR,0.00,VWS V14.01,2013-11-30 05:16:00,
2013-11-30 00:21:00,34.9,25.8,30.59,ESE,119,0.0,7.0,69,0.00,,CLR,0.00,VWS V14.01,2013-11-30 05:21:00,
2013-11-30 00:26:00,34.8,25.7,30.59,ESE,119,0.0,7.0,69,0.00,,CLR,0.00,VWS V14.01,2013-11-30 05:26:00,
2013-11-30 00:31:00,34.7,26.6,30.59,ESE,119,0.0,7.0,72,0.00,,CLR,0.00,VWS V14.01,2013-11-30 05:31:00,
2013-11-30 00:37:00,34.5,26.4,30.59,ESE,119,0.0,7.0,72,0.00,,CLR,0.00,VWS V14.01,2013-11-30 05:37:00,
2013-11-30 00:43:00,34.2,25.8,30.59,ESE,119,0.0,7.0,71,0.00,,CLR,0.00,VWS V14.01,2013-11-30 05:43:00,
2013-11-30 00:48:00,33.9,25.8,30.59,ESE,119,0.0,7.0,72,0.00,,CLR,0.00,VWS V14.01,2013-11-30 05:48:00,
2013-11-30 00:53:00,33.7,26.0,30.59,ESE,119,0.0,7.0,73,0.00,,CLR,0.00,VWS V14.01,2013-11-30 05:53:00,
2013-11-30 00:58:00,33.5,25.8,30.59,ESE,119,0.0,7.0,73,0.00,,CLR,0.00,VWS V14.01,2013-11-30 05:58:00,
2013-11-30 01:03:00,33.2,25.8,30.59,ESE,119,0.0,7.0,74,0.00,,CLR,0.00,VWS V14.01,2013-11-30 06:03:00,
2013-11-30 01:08:00,32.8,25.8,30.59,ESE,119,0.0,7.0,75,0.00,,CLR,0.00,VWS V14.01,2013-11-30 06:08:00,
2013-11-30 01:13:00,32.5,25.5,30.59,ESE,119,0.0,7.0,75,0.00,,CLR,0.00,VWS V14.01,2013-11-30 06:13:00,
2013-11-30 01:18:00,32.3,25.6,30.59,ESE,119,0.0,7.0,76,0.00,,CLR,0.00,VWS V14.01,2013-11-30 06:18:00,
2013-11-30 01:23:00,32.2,25.8,30.59,ESE,119,0.0,7.0,77,0.00,,CLR,0.00,VWS V14.01,2013-11-30 06:23:00,
2013-11-30 01:28:00,32.2,25.5,30.59,ESE,119,0.0,7.0,76,0.00,,CLR,0.00,VWS V14.01,2013-11-30 06:28:00,
2013-11-30 01:33:00,32.3,25.6,30.59,ESE,119,0.0,7.0,76,0.00,,CLR,0.00,VWS V14.01,2013-11-30 06:33:00,
2013-11-30 01:38:00,32.4,25.7,30.59,ESE,119,0.0,7.0,76,0.00,,CLR,0.00,VWS V14.01,2013-11-30 06:38:00,
2013-11-30 01:43:00,32.4,25.4,30.59,ESE,119,0.0,7.0,75,0.00,,CLR,0.00,VWS V14.01,2013-11-30 06:43:00,
2013-11-30 01:48:00,32.4,25.4,30.59,ESE,119,0.0,7.0,75,0.00,,CLR,0.00,VWS V14.01,2013-11-30 06:48:00,
2013-11-30 01:53:00,32.4,25.0,30.59,ESE,119,0.0,7.0,74,0.00,,CLR,0.00,VWS V14.01,2013-11-30 06:53:00,
2013-11-30 01:58:00,32.4,25.0,30.59,ESE,119,0.0,7.0,74,0.00,,CLR,0.00,VWS V14.01,2013-11-30 06:58:00,
2013-11-30 02:03:00,32.5,25.1,30.59,ESE,119,0.0,7.0,74,0.00,,CLR,0.00,VWS V14.01,2013-11-30 07:03:00,
2013-11-30 02:08:00,32.5,25.1,30.60,ESE,119,0.0,7.0,74,0.00,,CLR,0.00,VWS V14.01,2013-11-30 07:08:00,
2013-11-30 02:13:00,32.5,25.1,30.59,ESE,119,0.0,7.0,74,0.00,,CLR,0.00,VWS V14.01,2013-11-30 07:13:00,
2013-11-30 02:18:00,32.5,25.5,30.59,ESE,119,0.0,7.0,75,0.00,,CLR,0.00,VWS V14.01,2013-11-30 07:18:00,
2013-11-30 02:23:00,32.4,25.4,30.59,ESE,119,0.0,7.0,75,0.00,,CLR,0.00,VWS V14.01,2013-11-30 07:23:00,
2013-11-30 02:28:00,32.4,25.0,30.59,ESE,119,0.0,7.0,74,0.00,,CLR,0.00,VWS V14.01,2013-11-30 07:28:00,
2013-11-30 02:33:00,32.3,25.0,30.59,ESE,119,0.0,7.0,74,0.00,,CLR,0.00,VWS V14.01,2013-11-30 07:33:00,
2013-11-30 02:38:00,32.2,24.9,30.59,ESE,119,0.0,7.0,74,0.00,,CLR,0.00,VWS V14.01,2013-11-30 07:38:00,
2013-11-30 02:43:00,32.2,25.2,30.59,East,96,0.0,7.0,75,0.00,,CLR,0.00,VWS V14.01,2013-11-30 07:43:00,
2013-11-30 02:48:00,32.1,25.1,30.59,East,96,0.0,7.0,75,0.00,,CLR,0.00,VWS V14.01,2013-11-30 07:48:00,
2013-11-30 02:53:00,32.1,24.8,30.59,East,86,0.0,7.0,74,0.00,,CLR,0.00,VWS V14.01,2013-11-30 07:53:00,
2013-11-30 02:58:00,32.0,24.7,30.59,ENE,57,0.0,7.0,74,0.00,,CLR,0.00,VWS V14.01,2013-11-30 07:58:00,
2013-11-30 03:03:00,32.0,25.0,30.59,NE,34,0.0,7.0,75,0.00,,CLR,0.00,VWS V14.01,2013-11-30 08:03:00,
2013-11-30 03:08:00,31.9,24.9,30.59,NE,55,0.0,7.0,75,0.00,,CLR,0.00,VWS V14.01,2013-11-30 08:08:00,
2013-11-30 03:13:00,31.9,24.9,30.59,NE,53,0.0,7.0,75,0.00,,CLR,0.00,VWS V14.01,2013-11-30 08:13:00,
2013-11-30 03:18:00,31.8,24.8,30.58,NE,53,0.0,7.0,75,0.00,,CLR,0.00,VWS V14.01,2013-11-30 08:18:00,
2013-11-30 03:23:00,31.7,24.7,30.59,NNE,30,0.0,7.0,75,0.00,,CLR,0.00,VWS V14.01,2013-11-30 08:23:00,
2013-11-30 03:28:00,31.6,24.6,30.59,NNE,26,0.0,7.0,75,0.00,,CLR,0.00,VWS V14.01,2013-11-30 08:28:00,
2013-11-30 03:33:00,31.5,24.5,30.59,NNE,26,0.0,7.0,75,0.00,,CLR,0.00,VWS V14.01,2013-11-30 08:33:00,
2013-11-30 03:38:00,31.5,24.5,30.59,NNE,26,0.0,7.0,75,0.00,,CLR,0.00,VWS V14.01,2013-11-30 08:38:00,
2013-11-30 03:43:00,31.4,24.4,30.59,NNE,26,0.0,7.0,75,0.00,,CLR,0.00,VWS V14.01,2013-11-30 08:43:00,
2013-11-30 03:48:00,31.2,24.5,30.59,NNE,26,0.0,7.0,76,0.00,,CLR,0.00,VWS V14.01,2013-11-30 08:48:00,
2013-11-30 03:53:00,31.1,24.4,30.59,NNE,26,0.0,7.0,76,0.00,,CLR,0.00,VWS V14.01,2013-11-30 08:53:00,
2013-11-30 03:58:00,31.0,24.3,30.59,NNE,26,0.0,7.0,76,0.00,,CLR,0.00,VWS V14.01,2013-11-30 08:58:00,
2013-11-30 04:03:00,31.0,24.3,30.59,NNE,26,0.0,7.0,76,0.00,,CLR,0.00,VWS V14.01,2013-11-30 09:03:00,
2013-11-30 04:08:00,30.9,24.5,30.59,NNE,26,0.0,7.0,77,0.00,,CLR,0.00,VWS V14.01,2013-11-30 09:08:00,
2013-11-30 04:13:00,30.8,24.5,30.59,NNE,26,0.0,7.0,77,0.00,,CLR,0.00,VWS V14.01,2013-11-30 09:13:00,
2013-11-30 04:18:00,30.7,24.4,30.59,NNE,26,0.0,7.0,77,0.00,,CLR,0.00,VWS V14.01,2013-11-30 09:18:00,
2013-11-30 04:23:00,30.6,24.3,30.59,NE,50,0.0,7.0,77,0.00,,CLR,0.00,VWS V14.01,2013-11-30 09:23:00,
2013-11-30 04:28:00,30.5,24.2,30.59,NE,49,0.0,7.0,77,0.00,,CLR,0.00,VWS V14.01,2013-11-30 09:28:00,
2013-11-30 04:33:00,30.5,24.2,30.60,NE,49,0.0,7.0,77,0.00,,CLR,0.00,VWS V14.01,2013-11-30 09:33:00,
2013-11-30 04:38:00,30.5,24.2,30.60,NE,50,0.0,7.0,77,0.00,,CLR,0.00,VWS V14.01,2013-11-30 09:38:00,
2013-11-30 04:43:00,30.4,24.1,30.60,NE,37,0.0,7.0,77,0.00,,CLR,0.00,VWS V14.01,2013-11-30 09:43:00,
2013-11-30 04:48:00,30.4,24.1,30.59,NE,40,0.0,7.0,77,0.00,,CLR,0.00,VWS V14.01,2013-11-30 09:48:00,
2013-11-30 04:53:00,30.4,24.4,30.59,NE,44,0.0,7.0,78,0.00,,CLR,0.00,VWS V14.01,2013-11-30 09:53:00,
2013-11-30 04:58:00,30.4,24.1,30.59,NE,41,0.0,7.0,77,0.00,,CLR,0.00,VWS V14.01,2013-11-30 09:58:00,
2013-11-30 05:03:00,30.3,24.0,30.59,NE,41,0.0,7.0,77,0.00,,CLR,0.00,VWS V14.01,2013-11-30 10:03:00,
2013-11-30 05:08:00,30.2,23.9,30.59,NE,36,0.0,7.0,77,0.00,,CLR,0.00,VWS V14.01,2013-11-30 10:08:00,
2013-11-30 05:13:00,30.3,24.3,30.60,NE,40,0.0,7.0,78,0.00,,CLR,0.00,VWS V14.01,2013-11-30 10:13:00,
2013-11-30 05:18:00,30.3,24.3,30.60,NE,40,0.0,7.0,78,0.00,,CLR,0.00,VWS V14.01,2013-11-30 10:18:00,
2013-11-30 05:23:00,30.2,24.2,30.60,NE,34,1.0,7.0,78,0.00,,CLR,0.00,VWS V14.01,2013-11-30 10:23:00,
2013-11-30 05:28:00,30.1,24.1,30.60,NE,34,0.0,7.0,78,0.00,,CLR,0.00,VWS V14.01,2013-11-30 10:28:00,
2013-11-30 05:33:00,30.0,24.0,30.59,NE,34,0.0,7.0,78,0.00,,CLR,0.00,VWS V14.01,2013-11-30 10:33:00,
2013-11-30 05:38:00,30.0,24.0,30.59,NE,34,0.0,7.0,78,0.00,,CLR,0.00,VWS V14.01,2013-11-30 10:38:00,
2013-11-30 05:43:00,30.0,24.0,30.60,NE,34,0.0,7.0,78,0.00,,CLR,0.00,VWS V14.01,2013-11-30 10:43:00,
2013-11-30 05:48:00,29.9,23.9,30.60,NE,34,0.0,7.0,78,0.00,,CLR,0.00,VWS V14.01,2013-11-30 10:48:00,
2013-11-30 05:53:00,29.8,24.1,30.60,NE,34,0.0,7.0,79,0.00,,CLR,0.00,VWS V14.01,2013-11-30 10:53:00,
2013-11-30 05:58:00,29.7,24.0,30.60,NE,34,0.0,7.0,79,0.00,,CLR,0.00,VWS V14.01,2013-11-30 10:58:00,
2013-11-30 06:03:00,29.7,24.0,30.61,NE,34,0.0,7.0,79,0.00,,CLR,0.00,VWS V14.01,2013-11-30 11:03:00,
2013-11-30 06:08:00,29.7,24.0,30.61,NE,34,0.0,7.0,79,0.00,,CLR,0.00,VWS V14.01,2013-11-30 11:08:00,
2013-11-30 06:13:00,29.7,24.0,30.61,NE,34,0.0,7.0,79,0.00,,CLR,0.00,VWS V14.01,2013-11-30 11:13:00,
2013-11-30 06:18:00,29.7,24.0,30.61,NE,34,0.0,7.0,79,0.00,,CLR,0.00,VWS V14.01,2013-11-30 11:18:00,
2013-11-30 06:23:00,29.7,24.0,30.61,NE,34,0.0,7.0,79,0.00,,CLR,0.00,VWS V14.01,2013-11-30 11:23:00,
2013-11-30 06:28:00,29.7,24.0,30.61,NE,34,0.0,7.0,79,0.00,,CLR,0.00,VWS V14.01,2013-11-30 11:28:00,
2013-11-30 06:33:00,29.6,23.9,30.61,NE,34,0.0,7.0,79,0.00,,CLR,0.00,VWS V14.01,2013-11-30 11:33:00,
2013-11-30 06:38:00,29.6,23.9,30.62,NE,35,0.0,7.0,79,0.00,,CLR,0.00,VWS V14.01,2013-11-30 11:38:00,
2013-11-30 06:43:00,29.6,23.9,30.62,NE,42,0.0,7.0,79,0.00,,CLR,0.00,VWS V14.01,2013-11-30 11:43:00,
2013-11-30 06:48:00,29.6,23.9,30.62,NE,42,0.0,7.0,79,0.00,,CLR,0.00,VWS V14.01,2013-11-30 11:48:00,
2013-11-30 06:53:00,29.6,23.6,30.61,NE,42,0.0,7.0,78,0.00,,CLR,0.00,VWS V14.01,2013-11-30 11:53:00,
2013-11-30 06:58:00,29.6,23.9,30.61,NE,42,0.0,7.0,79,0.00,,CLR,0.00,VWS V14.01,2013-11-30 11:58:00,
2013-11-30 07:03:00,29.7,24.0,30.62,ENE,59,0.0,7.0,79,0.00,,FEW250,0.00,VWS V14.01,2013-11-30 12:03:00,
2013-11-30 07:08:00,29.6,23.6,30.62,ENE,59,0.0,7.0,78,0.00,,FEW250,0.00,VWS V14.01,2013-11-30 12:08:00,
2013-11-30 07:13:00,29.6,23.6,30.62,NE,55,0.0,7.0,78,0.00,,FEW250,0.00,VWS V14.01,2013-11-30 12:13:00,
2013-11-30 07:18:00,29.7,23.7,30.62,NE,45,0.0,7.0,78,0.00,,FEW250,0.00,VWS V14.01,2013-11-30 12:18:00,
2013-11-30 07:23:00,29.7,23.7,30.62,NE,55,0.0,7.0,78,0.00,,FEW250,0.00,VWS V14.01,2013-11-30 12:23:00,
2013-11-30 07:28:00,29.7,23.4,30.62,NE,53,0.0,7.0,77,0.00,,FEW250,0.00,VWS V14.01,2013-11-30 12:28:00,
2013-11-30 07:33:00,29.8,23.5,30.62,NE,38,0.0,7.0,77,0.00,,FEW250,0.00,VWS V14.01,2013-11-30 12:33:00,
2013-11-30 07:38:00,29.8,23.5,30.62,NE,46,0.0,7.0,77,0.00,,FEW250,0.00,VWS V14.01,2013-11-30 12:38:00,
2013-11-30 07:43:00,30.0,23.7,30.62,East,83,0.0,7.0,77,0.00,,FEW250,0.00,VWS V14.01,2013-11-30 12:43:00,
2013-11-30 07:48:00,30.1,23.8,30.63,East,87,0.0,7.0,77,0.00,,FEW250,0.00,VWS V14.01,2013-11-30 12:48:00,
2013-11-30 07:53:00,30.1,23.8,30.62,East,82,0.0,7.0,77,0.00,,FEW250,0.00,VWS V14.01,2013-11-30 12:53:00,
2013-11-30 07:58:00,30.2,23.6,30.62,ENE,61,0.0,7.0,76,0.00,,FEW250,0.00,VWS V14.01,2013-11-30 12:58:00,
2013-11-30 08:03:00,30.5,23.9,30.62,ENE,67,0.0,7.0,76,0.00,,FEW250,0.00,VWS V14.01,2013-11-30 13:03:00,
2013-11-30 08:08:00,30.6,24.0,30.62,NE,55,0.0,7.0,76,0.00,,FEW250,0.00,VWS V14.01,2013-11-30 13:08:00,
2013-11-30 08:13:00,30.7,23.7,30.62,NE,49,0.0,7.0,75,0.00,,FEW250,0.00,VWS V14.01,2013-11-30 13:13:00,
2013-11-30 08:18:00,30.8,23.8,30.62,NNE,33,0.0,7.0,75,0.00,,FEW250,0.00,VWS V14.01,2013-11-30 13:18:00,
2013-11-30 08:23:00,31.0,24.0,30.62,NNE,33,0.0,7.0,75,0.00,,FEW250,0.00,VWS V14.01,2013-11-30 13:23:00,
2013-11-30 08:28:00,31.2,24.2,30.62,East,81,0.0,7.0,75,0.00,,FEW250,0.00,VWS V14.01,2013-11-30 13:28:00,
2013-11-30 08:33:00,31.4,24.1,30.62,NE,49,1.0,7.0,74,0.00,,FEW250,0.00,VWS V14.01,2013-11-30 13:33:00,
2013-11-30 08:38:00,31.6,24.0,30.62,ENE,61,0.0,7.0,73,0.00,,FEW250,0.00,VWS V14.01,2013-11-30 13:38:00,
2013-11-30 08:43:00,31.8,24.1,30.62,East,97,0.0,7.0,73,0.00,,FEW250,0.00,VWS V14.01,2013-11-30 13:43:00,
2013-11-30 08:48:00,32.0,24.3,30.62,East,92,1.0,7.0,73,0.00,,FEW250,0.00,VWS V14.01,2013-11-30 13:48:00,
2013-11-30 08:53:00,32.2,24.2,30.62,East,101,0.0,7.0,72,0.00,,FEW250,0.00,VWS V14.01,2013-11-30 13:53:00,
2013-11-30 08:58:00,32.4,24.4,30.62,NE,53,0.0,7.0,72,0.00,,FEW250,0.00,VWS V14.01,2013-11-30 13:58:00,
2013-11-30 09:03:00,32.7,24.4,30.62,NNE,24,0.0,7.0,71,0.00,,SCT250,0.00,VWS V14.01,2013-11-30 14:03:00,
2013-11-30 09:08:00,32.9,24.5,30.62,ENE,67,0.0,7.0,71,0.00,,SCT250,0.00,VWS V14.01,2013-11-30 14:08:00,
2013-11-30 09:13:00,33.2,24.5,30.62,ENE,65,0.0,7.0,70,0.00,,SCT250,0.00,VWS V14.01,2013-11-30 14:13:00,
2013-11-30 09:18:00,33.5,24.8,30.62,NE,54,0.0,7.0,70,0.00,,SCT250,0.00,VWS V14.01,2013-11-30 14:18:00,
2013-11-30 09:23:00,33.8,24.4,30.61,NNE,15,2.0,7.0,68,0.00,,SCT250,0.00,VWS V14.01,2013-11-30 14:23:00,
2013-11-30 09:28:00,33.9,24.5,30.61,NE,52,0.0,7.0,68,0.00,,SCT250,0.00,VWS V14.01,2013-11-30 14:28:00,
2013-11-30 09:33:00,34.3,24.5,30.61,NE,51,0.0,7.0,67,0.00,,SCT250,0.00,VWS V14.01,2013-11-30 14:33:00,
2013-11-30 09:38:00,34.6,25.1,30.61,East,101,0.0,7.0,68,0.00,,SCT250,0.00,VWS V14.01,2013-11-30 14:38:00,
2013-11-30 09:43:00,35.0,25.2,30.61,SSE,167,1.0,7.0,67,0.00,,SCT250,0.00,VWS V14.01,2013-11-30 14:43:00,
2013-11-30 09:48:00,35.5,25.3,30.61,ENE,62,0.0,7.0,66,0.00,,SCT250,0.00,VWS V14.01,2013-11-30 14:48:00,
2013-11-30 09:53:00,35.7,24.7,30.61,ENE,65,1.0,7.0,64,0.00,,SCT250,0.00,VWS V14.01,2013-11-30 14:53:00,
2013-11-30 09:58:00,35.7,24.7,30.61,East,96,0.0,7.0,64,0.00,,SCT250,0.00,VWS V14.01,2013-11-30 14:58:00,
2013-11-30 10:03:00,35.9,24.9,30.61,NE,44,2.0,7.0,64,0.00,,SCT250,0.00,VWS V14.01,2013-11-30 15:03:00,
2013-11-30 10:08:00,36.2,24.8,30.61,ESE,105,1.0,7.0,63,0.00,,SCT250,0.00,VWS V14.01,2013-11-30 15:08:00,
2013-11-30 10:13:00,36.6,25.2,30.61,ENE,67,0.0,7.0,63,0.00,,SCT250,0.00,VWS V14.01,2013-11-30 15:13:00,
2013-11-30 10:18:00,37.0,25.6,30.61,SE,145,1.0,7.0,63,0.00,,SCT250,0.00,VWS V14.01,2013-11-30 15:18:00,
2013-11-30 10:23:00,37.3,25.5,30.61,East,82,0.0,7.0,62,0.00,,SCT250,0.00,VWS V14.01,2013-11-30 15:23:00,
2013-11-30 10:28:00,37.5,25.3,30.60,ENE,67,0.0,7.0,61,0.00,,SCT250,0.00,VWS V14.01,2013-11-30 15:28:00,
2013-11-30 10:33:00,37.9,25.3,30.60,ENE,74,0.0,7.0,60,0.00,,SCT250,0.00,VWS V14.01,2013-11-30 15:33:00,
2013-11-30 10:38:00,38.4,25.7,30.60,ESE,104,0.0,7.0,60,0.00,,SCT250,0.00,VWS V14.01,2013-11-30 15:38:00,
2013-11-30 10:43:00,38.9,25.4,30.60,NE,41,1.0,7.0,58,0.00,,SCT250,0.00,VWS V14.01,2013-11-30 15:43:00,
2013-11-30 10:48:00,39.4,25.9,30.60,ENE,68,0.0,7.0,58,0.00,,SCT250,0.00,VWS V14.01,2013-11-30 15:48:00,
2013-11-30 10:53:00,39.8,25.4,30.60,North,350,0.0,7.0,56,0.00,,SCT250,0.00,VWS V14.01,2013-11-30 15:53:00,
2013-11-30 10:58:00,40.1,25.7,30.60,ENE,76,0.0,7.0,56,0.00,,SCT250,0.00,VWS V14.01,2013-11-30 15:58:00,
2013-11-30 11:03:00,40.4,25.1,30.60,East,89,0.0,7.0,54,0.00,,SCT250,0.00,VWS V14.01,2013-11-30 16:03:00,
2013-11-30 11:08:00,40.2,24.9,30.59,NNE,14,3.0,7.0,54,0.00,,SCT250,0.00,VWS V14.01,2013-11-30 16:08:00,
2013-11-30 11:13:00,40.3,25.4,30.59,East,84,1.0,7.0,55,0.00,,SCT250,0.00,VWS V14.01,2013-11-30 16:13:00,
2013-11-30 11:18:00,40.4,24.6,30.59,NNE,19,1.0,7.0,53,0.00,,SCT250,0.00,VWS V14.01,2013-11-30 16:18:00,
2013-11-30 11:23:00,40.8,25.5,30.59,NE,51,0.0,7.0,54,0.00,,SCT250,0.00,VWS V14.01,2013-11-30 16:23:00,
2013-11-30 11:28:00,41.1,25.3,30.58,North,360,4.0,7.0,53,0.00,,SCT250,0.00,VWS V14.01,2013-11-30 16:28:00,
2013-11-30 11:33:00,41.3,25.0,30.57,NE,49,0.0,7.0,52,0.00,,SCT250,0.00,VWS V14.01,2013-11-30 16:33:00,
2013-11-30 11:38:00,41.4,24.6,30.57,ENE,77,1.0,7.0,51,0.00,,SCT250,0.00,VWS V14.01,2013-11-30 16:38:00,
2013-11-30 11:43:00,41.7,24.9,30.56,SE,135,3.0,7.0,51,0.00,,SCT250,0.00,VWS V14.01,2013-11-30 16:43:00,
2013-11-30 11:48:00,41.8,25.0,30.56,NE,54,0.0,7.0,51,0.00,,SCT250,0.00,VWS V14.01,2013-11-30 16:48:00,
2013-11-30 11:53:00,42.0,24.7,30.56,East,101,1.0,7.0,50,0.00,,SCT250,0.00,VWS V14.01,2013-11-30 16:53:00,
2013-11-30 11:58:00,42.2,24.4,30.56,East,95,1.0,7.0,49,0.00,,SCT250,0.00,VWS V14.01,2013-11-30 16:58:00,
2013-11-30 12:03:00,42.5,25.2,30.56,ENE,69,0.0,7.0,50,0.00,,SCT250,0.00,VWS V14.01,2013-11-30 17:03:00,
2013-11-30 12:08:00,42.7,24.4,30.55,East,80,1.0,7.0,48,0.00,,SCT250,0.00,VWS V14.01,2013-11-30 17:08:00,
2013-11-30 12:14:00,42.8,25.5,30.55,NE,40,0.0,7.0,50,0.00,,SCT250,0.00,VWS V14.01,2013-11-30 17:14:00,
2013-11-30 12:19:00,43.2,25.4,30.55,East,94,1.0,7.0,49,0.00,,SCT250,0.00,VWS V14.01,2013-11-30 17:19:00,
2013-11-30 12:24:00,43.2,24.4,30.54,NNW,338,2.0,7.0,47,0.00,,SCT250,0.00,VWS V14.01,2013-11-30 17:24:00,
2013-11-30 12:29:00,43.3,24.9,30.54,ENE,74,2.0,7.0,48,0.00,,SCT250,0.00,VWS V14.01,2013-11-30 17:29:00,
2013-11-30 12:34:00,43.5,26.1,30.53,North,350,3.0,7.0,50,0.00,,SCT250,0.00,VWS V14.01,2013-11-30 17:34:00,
2013-11-30 12:39:00,43.7,25.3,30.53,NNE,24,2.0,7.0,48,0.00,,SCT250,0.00,VWS V14.01,2013-11-30 17:39:00,
2013-11-30 12:44:00,43.6,25.2,30.53,North,11,0.0,7.0,48,0.00,,SCT250,0.00,VWS V14.01,2013-11-30 17:44:00,
2013-11-30 12:49:00,43.9,26.0,30.53,NE,34,0.0,7.0,49,0.00,,SCT250,0.00,VWS V14.01,2013-11-30 17:49:00,
2013-11-30 12:54:00,44.3,25.9,30.52,ENE,67,1.0,7.0,48,0.00,,SCT250,0.00,VWS V14.01,2013-11-30 17:54:00,
2013-11-30 12:59:00,44.6,26.6,30.51,ESE,122,0.0,7.0,49,0.00,,SCT250,0.00,VWS V14.01,2013-11-30 17:59:00,
2013-11-30 13:04:00,44.9,26.9,30.51,ESE,119,1.0,7.0,49,0.00,,SCT250,0.00,VWS V14.01,2013-11-30 18:04:00,
2013-11-30 13:09:00,45.1,26.1,30.51,ENE,72,0.0,7.0,47,0.00,,SCT250,0.00,VWS V14.01,2013-11-30 18:09:00,
2013-11-30 13:14:00,44.9,26.9,30.50,SE,132,0.0,7.0,49,0.00,,SCT250,0.00,VWS V14.01,2013-11-30 18:14:00,
2013-11-30 13:19:00,44.9,26.4,30.50,East,90,1.0,7.0,48,0.00,,SCT250,0.00,VWS V14.01,2013-11-30 18:19:00,
2013-11-30 13:24:00,44.9,26.4,30.50,NE,37,0.0,7.0,48,0.00,,SCT250,0.00,VWS V14.01,2013-11-30 18:24:00,
2013-11-30 13:29:00,45.1,27.1,30.49,NE,54,0.0,7.0,49,0.00,,SCT250,0.00,VWS V14.01,2013-11-30 18:29:00,
2013-11-30 13:34:00,45.3,26.8,30.49,NE,49,1.0,7.0,48,0.00,,SCT250,0.00,VWS V14.01,2013-11-30 18:34:00,
2013-11-30 13:39:00,45.3,26.8,30.48,East,90,0.0,7.0,48,0.00,,SCT250,0.00,VWS V14.01,2013-11-30 18:39:00,
2013-11-30 13:44:00,45.2,26.2,30.48,East,86,0.0,7.0,47,0.00,,SCT250,0.00,VWS V14.01,2013-11-30 18:44:00,
2013-11-30 13:49:00,45.3,26.8,30.48,North,360,1.0,7.0,48,0.00,,SCT250,0.00,VWS V14.01,2013-11-30 18:49:00,
2013-11-30 13:54:00,45.4,26.4,30.48,SE,132,0.0,7.0,47,0.00,,SCT250,0.00,VWS V14.01,2013-11-30 18:54:00,
2013-11-30 13:59:00,45.5,26.5,30.47,ESE,112,0.0,7.0,47,0.00,,SCT250,0.00,VWS V14.01,2013-11-30 18:59:00,
2013-11-30 14:04:00,45.8,27.2,30.47,East,86,0.0,7.0,48,0.00,,SCT250,0.00,VWS V14.01,2013-11-30 19:04:00,
2013-11-30 14:09:00,45.9,26.3,30.47,East,95,1.0,7.0,46,0.00,,SCT250,0.00,VWS V14.01,2013-11-30 19:09:00,
2013-11-30 14:14:00,45.8,26.2,30.47,ENE,76,1.0,7.0,46,0.00,,SCT250,0.00,VWS V14.01,2013-11-30 19:14:00,
2013-11-30 14:19:00,45.8,26.7,30.47,NE,47,0.0,7.0,47,0.00,,SCT250,0.00,VWS V14.01,2013-11-30 19:19:00,
2013-11-30 14:24:00,45.9,25.8,30.47,NE,45,0.0,7.0,45,0.00,,SCT250,0.00,VWS V14.01,2013-11-30 19:24:00,
2013-11-30 14:29:00,45.9,25.8,30.46,ENE,69,1.0,7.0,45,0.00,,SCT250,0.00,VWS V14.01,2013-11-30 19:29:00,
2013-11-30 14:34:00,46.0,25.9,30.46,NNE,33,0.0,7.0,45,0.00,,SCT250,0.00,VWS V14.01,2013-11-30 19:34:00,
2013-11-30 14:39:00,46.1,25.4,30.46,East,90,0.0,7.0,44,0.00,,SCT250,0.00,VWS V14.01,2013-11-30 19:39:00,
2013-11-30 14:44:00,46.1,26.0,30.46,NE,55,0.0,7.0,45,0.00,,SCT250,0.00,VWS V14.01,2013-11-30 19:44:00,
2013-11-30 14:49:00,46.0,25.9,30.45,NE,51,0.0,7.0,45,0.00,,SCT250,0.00,VWS V14.01,2013-11-30 19:49:00,
2013-11-30 14:54:00,46.0,26.4,30.45,SSE,159,0.0,7.0,46,0.00,,SCT250,0.00,VWS V14.01,2013-11-30 19:54:00,
2013-11-30 14:59:00,46.2,27.1,30.45,ESE,119,0.0,7.0,47,0.00,,SCT250,0.00,VWS V14.01,2013-11-30 19:59:00,
2013-11-30 15:04:00,46.3,26.7,30.46,ENE,76,0.0,7.0,46,0.00,,SCT250,0.00,VWS V14.01,2013-11-30 20:04:00,
2013-11-30 15:09:00,46.2,26.6,30.45,ENE,70,0.0,7.0,46,0.00,,SCT250,0.00,VWS V14.01,2013-11-30 20:09:00,
2013-11-30 15:14:00,46.3,27.7,30.45,NE,39,0.0,7.0,48,0.00,,SCT250,0.00,VWS V14.01,2013-11-30 20:14:00,
2013-11-30 15:19:00,46.3,26.1,30.45,NE,44,0.0,7.0,45,0.00,,SCT250,0.00,VWS V14.01,2013-11-30 20:19:00,
2013-11-30 15:24:00,46.3,26.1,30.45,ENE,67,0.0,7.0,45,0.00,,SCT250,0.00,VWS V14.01,2013-11-30 20:24:00,
2013-11-30 15:29:00,46.3,26.1,30.45,NNE,26,0.0,7.0,45,0.00,,SCT250,0.00,VWS V14.01,2013-11-30 20:29:00,
2013-11-30 15:34:00,46.4,26.8,30.45,NNE,26,0.0,7.0,46,0.00,,SCT250,0.00,VWS V14.01,2013-11-30 20:34:00,
2013-11-30 15:39:00,46.4,26.2,30.44,SE,130,0.0,7.0,45,0.00,,SCT250,0.00,VWS V14.01,2013-11-30 20:39:00,
2013-11-30 15:44:00,46.4,26.8,30.44,SE,130,0.0,7.0,46,0.00,,SCT250,0.00,VWS V14.01,2013-11-30 20:44:00,
2013-11-30 15:49:00,46.4,26.2,30.44,SE,130,0.0,7.0,45,0.00,,SCT250,0.00,VWS V14.01,2013-11-30 20:49:00,
2013-11-30 15:54:00,46.3,26.7,30.44,East,96,0.0,7.0,46,0.00,,SCT250,0.00,VWS V14.01,2013-11-30 20:54:00,
2013-11-30 15:59:00,46.3,26.7,30.44,South,173,0.0,7.0,46,0.00,,SCT250,0.00,VWS V14.01,2013-11-30 20:59:00,
2013-11-30 16:04:00,46.2,26.6,30.44,NE,53,0.0,7.0,46,0.00,,BKN250,0.00,VWS V14.01,2013-11-30 21:04:00,
2013-11-30 16:09:00,46.1,26.5,30.44,SE,139,0.0,7.0,46,0.00,,BKN250,0.00,VWS V14.01,2013-11-30 21:09:00,
2013-11-30 16:14:00,46.0,26.4,30.44,SE,139,0.0,7.0,46,0.00,,BKN250,0.00,VWS V14.01,2013-11-30 21:14:00,
2013-11-30 16:19:00,45.9,26.3,30.43,SE,138,0.0,7.0,46,0.00,,BKN250,0.00,VWS V14.01,2013-11-30 21:19:00,
2013-11-30 16:24:00,45.8,26.2,30.43,SE,138,0.0,7.0,46,0.00,,BKN250,0.00,VWS V14.01,2013-11-30 21:24:00,
2013-11-30 16:29:00,45.6,26.0,30.44,SE,138,0.0,7.0,46,0.00,,BKN250,0.00,VWS V14.01,2013-11-30 21:29:00,
2013-11-30 16:34:00,45.6,26.5,30.43,SE,138,0.0,7.0,47,0.00,,BKN250,0.00,VWS V14.01,2013-11-30 21:34:00,
2013-11-30 16:39:00,45.4,26.9,30.43,SE,138,0.0,7.0,48,0.00,,BKN250,0.00,VWS V14.01,2013-11-30 21:39:00,
2013-11-30 16:44:00,45.2,26.2,30.43,SE,138,0.0,7.0,47,0.00,,BKN250,0.00,VWS V14.01,2013-11-30 21:44:00,
2013-11-30 16:49:00,45.1,26.6,30.43,SE,138,0.0,7.0,48,0.00,,BKN250,0.00,VWS V14.01,2013-11-30 21:49:00,
2013-11-30 16:54:00,44.9,26.4,30.43,SE,138,0.0,7.0,48,0.00,,BKN250,0.00,VWS V14.01,2013-11-30 21:54:00,
2013-11-30 16:59:00,44.8,26.3,30.43,SE,138,0.0,7.0,48,0.00,,BKN250,0.00,VWS V14.01,2013-11-30 21:59:00,
2013-11-30 17:04:00,44.7,26.7,30.43,SE,138,0.0,7.0,49,0.00,,BKN250,0.00,VWS V14.01,2013-11-30 22:04:00,
2013-11-30 17:09:00,44.6,26.6,30.43,SE,138,0.0,7.0,49,0.00,,BKN250,0.00,VWS V14.01,2013-11-30 22:09:00,
2013-11-30 17:14:00,44.5,26.5,30.42,SE,138,0.0,7.0,49,0.00,,BKN250,0.00,VWS V14.01,2013-11-30 22:14:00,
2013-11-30 17:19:00,44.4,26.9,30.43,SE,138,0.0,7.0,50,0.00,,BKN250,0.00,VWS V14.01,2013-11-30 22:19:00,
2013-11-30 17:24:00,44.3,26.9,30.43,SE,138,0.0,7.0,50,0.00,,BKN250,0.00,VWS V14.01,2013-11-30 22:24:00,
2013-11-30 17:29:00,44.0,27.0,30.43,SE,138,0.0,7.0,51,0.00,,BKN250,0.00,VWS V14.01,2013-11-30 22:29:00,
2013-11-30 17:34:00,43.6,27.1,30.43,SE,138,0.0,7.0,52,0.00,,BKN250,0.00,VWS V14.01,2013-11-30 22:34:00,
2013-11-30 17:39:00,43.3,27.3,30.43,SE,138,0.0,7.0,53,0.00,,BKN250,0.00,VWS V14.01,2013-11-30 22:39:00,
2013-11-30 17:44:00,42.9,27.0,30.43,SE,138,0.0,7.0,53,0.00,,BKN250,0.00,VWS V14.01,2013-11-30 22:44:00,
2013-11-30 17:49:00,42.7,27.7,30.43,SE,138,0.0,7.0,55,0.00,,BKN250,0.00,VWS V14.01,2013-11-30 22:49:00,
2013-11-30 17:54:00,42.3,28.2,30.43,SE,138,0.0,7.0,57,0.00,,BKN250,0.00,VWS V14.01,2013-11-30 22:54:00,
2013-11-30 17:59:00,42.1,28.0,30.43,SE,138,0.0,7.0,57,0.00,,BKN250,0.00,VWS V14.01,2013-11-30 22:59:00,
2013-11-30 18:04:00,41.7,28.0,30.42,SE,138,0.0,7.0,58,0.00,,BKN250,0.00,VWS V14.01,2013-11-30 23:04:00,
2013-11-30 18:09:00,41.2,28.0,30.42,SE,138,0.0,7.0,59,0.00,,BKN250,0.00,VWS V14.01,2013-11-30 23:09:00,
2013-11-30 18:14:00,40.8,28.0,30.42,SE,138,0.0,7.0,60,0.00,,BKN250,0.00,VWS V14.01,2013-11-30 23:14:00,
2013-11-30 18:19:00,40.5,28.1,30.42,SE,138,0.0,7.0,61,0.00,,BKN250,0.00,VWS V14.01,2013-11-30 23:19:00,
2013-11-30 18:24:00,40.2,28.2,30.42,SE,138,0.0,7.0,62,0.00,,BKN250,0.00,VWS V14.01,2013-11-30 23:24:00,
2013-11-30 18:29:00,39.9,28.0,30.42,SE,138,0.0,7.0,62,0.00,,BKN250,0.00,VWS V14.01,2013-11-30 23:29:00,
2013-11-30 18:34:00,39.6,28.1,30.42,SE,138,0.0,7.0,63,0.00,,BKN250,0.00,VWS V14.01,2013-11-30 23:34:00,
2013-11-30 18:39:00,39.3,28.2,30.42,SE,138,0.0,7.0,64,0.00,,BKN250,0.00,VWS V14.01,2013-11-30 23:39:00,
2013-11-30 18:44:00,39.0,28.6,30.42,SE,138,0.0,7.0,66,0.00,,BKN250,0.00,VWS V14.01,2013-11-30 23:44:00,
2013-11-30 18:49:00,38.8,28.4,30.41,SE,138,0.0,7.0,66,0.00,,BKN250,0.00,VWS V14.01,2013-11-30 23:49:00,
2013-11-30 18:54:00,38.5,28.1,30.41,SE,138,0.0,7.0,66,0.00,,BKN250,0.00,VWS V14.01,2013-11-30 23:54:00,
2013-11-30 18:59:00,38.2,28.2,30.42,SE,138,0.0,7.0,67,0.00,,BKN250,0.00,VWS V14.01,2013-11-30 23:59:00,
2013-11-30 19:04:00,38.0,28.0,30.42,SE,138,0.0,7.0,67,0.00,,OVC250,0.00,VWS V14.01,2013-12-01 00:04:00,
2013-11-30 19:09:00,37.8,28.2,30.42,SE,138,0.0,7.0,68,0.00,,OVC250,0.00,VWS V14.01,2013-12-01 00:09:00,
2013-11-30 19:14:00,37.6,28.4,30.42,SE,138,0.0,7.0,69,0.00,,OVC250,0.00,VWS V14.01,2013-12-01 00:14:00,
2013-11-30 19:19:00,37.4,28.5,30.41,SE,138,0.0,7.0,70,0.00,,OVC250,0.00,VWS V14.01,2013-12-01 00:19:00,
2013-11-30 19:24:00,37.2,28.7,30.41,SE,138,0.0,7.0,71,0.00,,OVC250,0.00,VWS V14.01,2013-12-01 00:24:00,
2013-11-30 19:29:00,37.0,28.1,30.41,SE,138,0.0,7.0,70,0.00,,OVC250,0.00,VWS V14.01,2013-12-01 00:29:00,
2013-11-30 19:34:00,36.8,28.0,30.41,SE,138,0.0,7.0,70,0.00,,OVC250,0.00,VWS V14.01,2013-12-01 00:34:00,
2013-11-30 19:39:00,36.6,28.1,30.41,SE,138,0.0,7.0,71,0.00,,OVC250,0.00,VWS V14.01,2013-12-01 00:39:00,
2013-11-30 19:44:00,36.3,27.8,30.41,SE,138,0.0,7.0,71,0.00,,OVC250,0.00,VWS V14.01,2013-12-01 00:44:00,
2013-11-30 19:49:00,36.2,28.4,30.41,SE,138,0.0,7.0,73,0.00,,OVC250,0.00,VWS V14.01,2013-12-01 00:49:00,
2013-11-30 19:54:00,36.0,28.2,30.41,SE,138,0.0,7.0,73,0.00,,OVC250,0.00,VWS V14.01,2013-12-01 00:54:00,
2013-11-30 19:59:00,35.7,28.2,30.41,SE,138,0.0,7.0,74,0.00,,OVC250,0.00,VWS V14.01,2013-12-01 00:59:00,
2013-11-30 20:04:00,35.6,28.1,30.41,SE,138,0.0,7.0,74,0.00,,OVC250,0.00,VWS V14.01,2013-12-01 01:04:00,
2013-11-30 20:09:00,35.4,28.0,30.41,SE,138,0.0,7.0,74,0.00,,OVC250,0.00,VWS V14.01,2013-12-01 01:09:00,
2013-11-30 20:14:00,35.2,27.8,30.41,SE,138,0.0,7.0,74,0.00,,OVC250,0.00,VWS V14.01,2013-12-01 01:14:00,
2013-11-30 20:19:00,35.0,28.2,30.41,SE,138,0.0,7.0,76,0.00,,OVC250,0.00,VWS V14.01,2013-12-01 01:19:00,
2013-11-30 20:24:00,34.8,28.0,30.41,SE,138,0.0,7.0,76,0.00,,OVC250,0.00,VWS V14.01,2013-12-01 01:24:00,
2013-11-30 20:29:00,34.7,28.2,30.41,SE,138,0.0,7.0,77,0.00,,OVC250,0.00,VWS V14.01,2013-12-01 01:29:00,
2013-11-30 20:34:00,34.6,28.1,30.41,SE,138,0.0,7.0,77,0.00,,OVC250,0.00,VWS V14.01,2013-12-01 01:34:00,
2013-11-30 20:39:00,34.4,28.3,30.41,SE,138,0.0,7.0,78,0.00,,OVC250,0.00,VWS V14.01,2013-12-01 01:39:00,
2013-11-30 20:43:00,34.4,28.3,30.41,SE,138,0.0,7.0,78,0.00,,OVC250,0.00,VWS V14.01,2013-12-01 01:43:00,
2013-11-30 20:48:00,34.2,28.1,30.41,SE,138,0.0,7.0,78,0.00,,OVC250,0.00,VWS V14.01,2013-12-01 01:48:00,
2013-11-30 20:53:00,34.1,28.0,30.41,SE,138,0.0,7.0,78,0.00,,OVC250,0.00,VWS V14.01,2013-12-01 01:53:00,
2013-11-30 20:58:00,34.0,27.9,30.41,SE,138,0.0,7.0,78,0.00,,OVC250,0.00,VWS V14.01,2013-12-01 01:58:00,
2013-11-30 21:04:00,33.9,28.1,30.41,SE,138,0.0,7.0,79,0.00,,OVC250,0.00,VWS V14.01,2013-12-01 02:04:00,
2013-11-30 21:09:00,33.8,27.7,30.41,SE,138,0.0,7.0,78,0.00,,OVC250,0.00,VWS V14.01,2013-12-01 02:09:00,
2013-11-30 21:14:00,33.6,27.8,30.41,SE,138,0.0,7.0,79,0.00,,OVC250,0.00,VWS V14.01,2013-12-01 02:14:00,
2013-11-30 21:19:00,33.4,27.9,30.41,SE,138,0.0,7.0,80,0.00,,OVC250,0.00,VWS V14.01,2013-12-01 02:19:00,
2013-11-30 21:24:00,33.3,27.8,30.40,SE,138,0.0,7.0,80,0.00,,OVC250,0.00,VWS V14.01,2013-12-01 02:24:00,
2013-11-30 21:29:00,33.2,27.7,30.40,SE,138,0.0,7.0,80,0.00,,OVC250,0.00,VWS V14.01,2013-12-01 02:29:00,
2013-11-30 21:34:00,33.2,27.7,30.40,SE,138,0.0,7.0,80,0.00,,OVC250,0.00,VWS V14.01,2013-12-01 02:34:00,
2013-11-30 21:39:00,33.2,27.7,30.39,SE,138,0.0,7.0,80,0.00,,OVC250,0.00,VWS V14.01,2013-12-01 02:39:00,
2013-11-30 21:44:00,33.2,28.0,30.39,SE,138,0.0,7.0,81,0.00,,OVC250,0.00,VWS V14.01,2013-12-01 02:44:00,
2013-11-30 21:49:00,33.1,27.9,30.39,SE,138,0.0,7.0,81,0.00,,OVC250,0.00,VWS V14.01,2013-12-01 02:49:00,
2013-11-30 21:54:00,33.0,27.8,30.39,SE,138,0.0,7.0,81,0.00,,OVC250,0.00,VWS V14.01,2013-12-01 02:54:00,
2013-11-30 21:59:00,32.9,28.0,30.39,SE,138,0.0,7.0,82,0.00,,OVC250,0.00,VWS V14.01,2013-12-01 02:59:00,
2013-11-30 22:04:00,32.8,27.6,30.39,SE,138,0.0,7.0,81,0.00,,BKN250,0.00,VWS V14.01,2013-12-01 03:04:00,
2013-11-30 22:09:00,32.6,27.4,30.39,SE,138,0.0,7.0,81,0.00,,BKN250,0.00,VWS V14.01,2013-12-01 03:09:00,
2013-11-30 22:14:00,32.5,27.3,30.39,SE,138,0.0,7.0,81,0.00,,BKN250,0.00,VWS V14.01,2013-12-01 03:14:00,
2013-11-30 22:19:00,32.4,27.5,30.39,SE,138,0.0,7.0,82,0.00,,BKN250,0.00,VWS V14.01,2013-12-01 03:19:00,
2013-11-30 22:24:00,32.2,27.0,30.39,SE,138,0.0,7.0,81,0.00,,BKN250,0.00,VWS V14.01,2013-12-01 03:24:00,
2013-11-30 22:29:00,32.0,27.1,30.39,SE,138,0.0,7.0,82,0.00,,BKN250,0.00,VWS V14.01,2013-12-01 03:29:00,
2013-11-30 22:34:00,31.9,27.3,30.39,SE,138,0.0,7.0,83,0.00,,BKN250,0.00,VWS V14.01,2013-12-01 03:34:00,
2013-11-30 22:39:00,31.8,27.2,30.39,SE,138,0.0,7.0,83,0.00,,BKN250,0.00,VWS V14.01,2013-12-01 03:39:00,
2013-11-30 22:44:00,31.7,27.1,30.39,SE,138,0.0,7.0,83,0.00,,BKN250,0.00,VWS V14.01,2013-12-01 03:44:00,
2013-11-30 22:49:00,31.7,27.1,30.39,SE,138,0.0,7.0,83,0.00,,BKN250,0.00,VWS V14.01,2013-12-01 03:49:00,
2013-11-30 22:54:00,31.7,27.4,30.39,SE,138,0.0,7.0,84,0.00,,BKN250,0.00,VWS V14.01,2013-12-01 03:54:00,
2013-11-30 23:00:00,31.6,27.0,30.39,SE,138,0.0,7.0,83,0.00,,BKN250,0.00,VWS V14.01,2013-12-01 04:00:00,
2013-11-30 23:05:00,31.6,27.3,30.38,SE,138,0.0,7.0,84,0.00,,OVC250,0.00,VWS V14.01,2013-12-01 04:05:00,
2013-11-30 23:10:00,31.5,27.2,30.38,SE,138,0.0,7.0,84,0.00,,OVC250,0.00,VWS V14.01,2013-12-01 04:10:00,
2013-11-30 23:15:00,31.5,27.2,30.38,SE,138,0.0,7.0,84,0.00,,OVC250,0.00,VWS V14.01,2013-12-01 04:15:00,
2013-11-30 23:20:00,31.4,27.1,30.38,SE,138,0.0,7.0,84,0.00,,OVC250,0.00,VWS V14.01,2013-12-01 04:20:00,
2013-11-30 23:25:00,31.4,27.1,30.38,SE,138,0.0,7.0,84,0.00,,OVC250,0.00,VWS V14.01,2013-12-01 04:25:00,
2013-11-30 23:30:00,31.2,26.9,30.37,SE,138,0.0,7.0,84,0.00,,OVC250,0.00,VWS V14.01,2013-12-01 04:30:00,
2013-11-30 23:35:00,31.2,27.2,30.37,SE,138,0.0,7.0,85,0.00,,OVC250,0.00,VWS V14.01,2013-12-01 04:35:00,
2013-11-30 23:40:00,31.2,27.2,30.37,SE,138,0.0,7.0,85,0.00,,OVC250,0.00,VWS V14.01,2013-12-01 04:40:00,
2013-11-30 23:45:00,31.1,26.8,30.37,SE,138,0.0,7.0,84,0.00,,OVC250,0.00,VWS V14.01,2013-12-01 04:45:00,
2013-11-30 23:50:00,31.0,26.7,30.37,SE,138,0.0,7.0,84,0.00,,OVC250,0.00,VWS V14.01,2013-12-01 04:50:00,
2013-11-30 23:55:00,30.8,26.3,30.37,SE,138,0.0,7.0,83,0.00,,OVC250,0.00,VWS V14.01,2013-12-01 04:55:00,